FW5450 Weather Reports


Display with metric or nautical units.
time (UTC)temp
F
wind
direction
speed
MPH
gust
MPH
rain 1hr
in
rain 24hr
in
rain mn
in
humidity
%
barometer
mb
20200713165719 62 305 0.0 0.0 0.00 0.00 0.00 79 1017.8
20200713165220 62 290 0.0 0.0 0.00 0.00 0.00 80 1017.9
20200713164717 62 300 0.0 0.0 0.00 0.00 0.00 80 1017.9
20200713164217 62 296 0.0 0.0 0.00 0.00 0.00 81 1018.0
20200713163715 61 299 0.0 0.0 0.00 0.00 0.00 82 1018.0
20200713163205 61 296 0.0 0.0 0.00 0.00 0.00 82 1018.1
20200713162704 61 296 0.0 0.0 0.00 0.00 0.00 82 1018.1
20200713162159 61 298 0.0 0.0 0.00 0.00 0.00 82 1018.1
20200713161652 61 297 0.0 0.0 0.00 0.00 0.00 82 1018.1
20200713161148 61 293 0.0 0.0 0.00 0.00 0.00 82 1018.2
20200713160653 61 298 0.0 0.0 0.00 0.00 0.00 82 1018.2
20200713160149 61 300 0.0 0.0 0.00 0.00 0.00 84 1018.3
20200713155647 60 296 0.0 4.0 0.00 0.00 0.00 84 1018.3
20200713155152 60 310 0.0 4.0 0.00 0.00 0.00 84 1018.4
20200713154647 60 295 0.0 0.0 0.00 0.00 0.00 85 1018.4
20200713154145 60 307 2.0 7.0 0.00 0.00 0.00 85 1018.4
20200713153648 61 302 3.0 7.0 0.00 0.00 0.00 85 1018.4
20200713153145 61 304 2.0 7.0 0.00 0.00 0.00 85 1018.4
20200713152643 61 300 4.0 8.0 0.00 0.00 0.00 84 1018.3
20200713152144 62 294 4.0 9.0 0.00 0.00 0.00 84 1018.3
20200713151643 62 300 2.0 9.0 0.00 0.00 0.00 84 1018.3
20200713151144 62 304 1.0 4.0 0.00 0.00 0.00 85 1018.2
20200713150642 63 314 3.0 8.0 0.00 0.00 0.00 85 1018.2
20200713150145 63 311 4.0 8.0 0.00 0.00 0.00 84 1018.2
20200713145639 63 295 2.0 6.0 0.00 0.00 0.00 84 1018.3
20200713145139 63 294 2.0 6.0 0.00 0.00 0.00 84 1018.2
20200713144639 63 312 1.0 6.0 0.00 0.00 0.00 83 1018.3
20200713144139 64 300 0.0 6.0 0.00 0.00 0.00 81 1018.3
20200713143640 65 297 0.0 2.0 0.00 0.00 0.00 80 1018.2
20200713143137 65 249 0.0 2.0 0.00 0.00 0.00 80 1018.3
20200713142638 66 277 0.0 2.0 0.00 0.00 0.00 80 1018.3
20200713142137 66 266 0.0 2.0 0.00 0.00 0.00 79 1018.4
20200713141631 66 263 0.0 2.0 0.00 0.00 0.00 80 1018.4
20200713141131 65 307 0.0 2.0 0.00 0.00 0.00 80 1018.4
20200713140629 65 253 0.0 4.0 0.00 0.00 0.00 81 1018.5
20200713140130 65 274 0.0 4.0 0.00 0.00 0.00 81 1018.5
20200713135627 65 233 0.0 1.0 0.00 0.00 0.00 81 1018.6
20200713135125 65 272 0.0 0.0 0.00 0.00 0.00 81 1018.6
20200713134623 64 264 0.0 4.0 0.00 0.00 0.00 81 1018.6
20200713134122 64 293 0.0 4.0 0.00 0.00 0.00 81 1018.7
20200713133620 64 288 0.0 1.0 0.00 0.00 0.00 81 1018.7
20200713133129 64 287 0.0 0.0 0.00 0.00 0.00 81 1018.7
20200713132621 64 293 0.0 0.0 0.00 0.00 0.00 81 1018.8
20200713132122 64 291 0.0 0.0 0.00 0.00 0.00 81 1018.8
20200713131623 64 297 0.0 3.0 0.00 0.00 0.00 81 1018.8
20200713131121 64 293 0.0 3.0 0.00 0.00 0.00 82 1018.9
20200713130617 64 297 0.0 0.0 0.00 0.00 0.00 82 1018.9
20200713130108 64 290 0.0 0.0 0.00 0.00 0.00 82 1019.0
20200713125609 64 295 0.0 0.0 0.00 0.00 0.00 82 1019.0
20200713125109 64 293 0.0 0.0 0.00 0.00 0.00 83 1019.1
20200713124621 64 295 0.0 0.0 0.00 0.00 0.00 83 1019.1
20200713124120 64 289 0.0 1.0 0.00 0.00 0.00 83 1019.2
20200713123640 64 285 0.0 1.0 0.00 0.00 0.00 83 1019.1
20200713123059 64 257 0.0 0.0 0.00 0.00 0.00 83 1019.2
20200713122600 64 254 0.0 0.0 0.00 0.00 0.00 83 1019.3
20200713122054 64 152 0.0 0.0 0.00 0.00 0.00 83 1019.3
20200713121554 63 262 0.0 0.0 0.00 0.00 0.00 83 1019.4
20200713121114 63 156 0.0 0.0 0.00 0.00 0.00 83 1019.5
20200713120554 63 230 0.0 2.0 0.00 0.00 0.00 83 1019.5
20200713120051 63 231 0.0 2.0 0.00 0.00 0.00 82 1019.5
20200713115551 63 226 0.0 3.0 0.00 0.00 0.00 82 1019.5
20200713115047 63 141 0.0 3.0 0.00 0.00 0.00 82 1019.6
20200713114547 63 152 0.0 3.0 0.00 0.00 0.00 82 1019.7
20200713114048 63 203 0.0 5.0 0.00 0.00 0.00 83 1019.7
20200713113548 62 229 0.0 5.0 0.00 0.00 0.00 82 1019.7
20200713113047 63 134 0.0 3.0 0.00 0.00 0.00 83 1019.7
20200713112545 63 162 0.0 1.0 0.00 0.00 0.00 83 1019.8
20200713112047 63 98 0.0 3.0 0.00 0.00 0.00 82 1019.8
20200713111545 63 150 1.0 8.0 0.00 0.00 0.00 82 1019.8
20200713111043 62 127 1.0 8.0 0.00 0.00 0.00 82 1019.8
20200713110544 63 148 1.0 6.0 0.00 0.00 0.00 82 1019.9
20200713110042 63 145 0.0 6.0 0.00 0.00 0.00 82 1019.9
20200713105541 63 214 0.0 3.0 0.00 0.00 0.00 82 1020.0
20200713105041 63 133 0.0 4.0 0.00 0.00 0.00 82 1020.0
20200713104541 63 131 0.0 4.0 0.00 0.00 0.00 82 1020.0
20200713104040 63 198 0.0 5.0 0.00 0.00 0.00 82 1020.0
20200713103539 63 257 0.0 5.0 0.00 0.00 0.00 81 1020.1
20200713103042 63 211 0.0 2.0 0.00 0.00 0.00 82 1020.2
20200713102537 63 118 0.0 2.0 0.00 0.00 0.00 81 1020.1
20200713102037 63 133 0.0 6.0 0.00 0.00 0.00 81 1020.2
20200713101537 63 174 1.0 9.0 0.00 0.00 0.00 81 1020.2
20200713101037 63 149 0.0 9.0 0.00 0.00 0.00 81 1020.3
20200713100536 63 188 0.0 6.0 0.00 0.00 0.00 81 1020.2
20200713100035 63 179 0.0 4.0 0.00 0.00 0.00 82 1020.4
20200713095538 63 184 1.0 5.0 0.00 0.00 0.00 83 1020.4
20200713095033 62 158 1.0 5.0 0.00 0.00 0.00 83 1020.4
20200713094536 62 184 0.0 4.0 0.00 0.00 0.00 83 1020.4
20200713094031 62 191 0.0 6.0 0.00 0.00 0.00 84 1020.5
20200713093531 61 143 1.0 6.0 0.00 0.00 0.00 84 1020.6
20200713093031 61 217 1.0 6.0 0.00 0.00 0.00 84 1020.6
20200713092531 61 169 1.0 6.0 0.00 0.00 0.00 84 1020.7
20200713092033 61 163 1.0 6.0 0.00 0.00 0.00 84 1020.7
20200713091529 60 118 0.0 7.0 0.00 0.00 0.00 85 1020.8
20200713091030 60 200 1.0 7.0 0.00 0.00 0.00 84 1020.8
20200713090527 60 155 2.0 10.0 0.00 0.00 0.00 84 1020.8
20200713090027 60 198 2.0 10.0 0.00 0.00 0.00 84 1020.9
20200713085529 60 167 2.0 7.0 0.00 0.00 0.00 84 1020.9
20200713085025 60 148 2.0 9.0 0.00 0.00 0.00 83 1020.9
20200713084527 60 179 1.0 9.0 0.00 0.00 0.00 83 1020.9
20200713084025 61 143 0.0 6.0 0.00 0.00 0.00 83 1020.9
20200713083523 61 149 1.0 7.0 0.00 0.00 0.00 83 1020.9
20200713083025 61 224 0.0 7.0 0.00 0.00 0.00 83 1020.9
20200713082525 61 194 0.0 3.0 0.00 0.00 0.00 83 1020.9
20200713082023 61 205 0.0 5.0 0.00 0.00 0.00 83 1021.0
20200713081522 61 204 0.0 5.0 0.00 0.00 0.00 83 1020.9
20200713081023 61 214 1.0 4.0 0.00 0.00 0.00 84 1020.9
20200713080523 60 223 1.0 7.0 0.00 0.00 0.00 84 1021.0
20200713080026 60 222 1.0 7.0 0.00 0.00 0.00 84 1021.1
20200713075521 60 120 0.0 6.0 0.00 0.00 0.00 84 1021.1
20200713075024 60 167 0.0 4.0 0.00 0.00 0.00 85 1021.2
20200713074522 59 204 1.0 5.0 0.00 0.00 0.00 84 1021.2
20200713074022 59 210 1.0 6.0 0.00 0.00 0.00 84 1021.2
20200713073521 59 172 1.0 6.0 0.00 0.00 0.00 83 1021.1
20200713073021 59 153 1.0 4.0 0.00 0.00 0.00 83 1021.1
20200713072515 59 174 0.0 5.0 0.00 0.00 0.00 84 1021.2
20200713072018 59 209 1.0 5.0 0.00 0.00 0.00 84 1021.1
20200713071516 59 193 1.0 4.0 0.00 0.00 0.00 84 1021.1
20200713071017 59 174 2.0 7.0 0.00 0.00 0.00 84 1021.0
20200713070516 59 110 2.0 7.0 0.00 0.00 0.00 84 1021.1
20200713070016 58 143 0.0 4.0 0.00 0.00 0.00 84 1021.1
20200713065514 58 224 0.0 3.0 0.00 0.00 0.00 84 1021.2
20200713065011 58 165 0.0 3.0 0.00 0.00 0.00 84 1021.3
20200713064513 57 163 0.0 0.0 0.00 0.00 0.00 84 1021.3
20200713064009 57 145 0.0 0.0 0.00 0.00 0.00 84 1021.4
20200713063510 57 243 0.0 1.0 0.00 0.00 0.00 84 1021.4
20200713063011 57 149 0.0 1.0 0.00 0.00 0.00 84 1021.4
20200713062510 57 164 0.0 0.0 0.00 0.00 0.00 84 1021.5
20200713062022 57 163 0.0 0.0 0.00 0.00 0.00 83 1021.5
20200713061511 57 179 0.0 0.0 0.00 0.00 0.00 83 1021.6
20200713061004 56 150 0.0 0.0 0.00 0.00 0.00 83 1021.7
20200713060505 56 141 0.0 0.0 0.00 0.00 0.00 82 1021.6
20200713060006 56 165 0.0 0.0 0.00 0.00 0.00 82 1021.7
20200713055506 56 170 0.0 0.0 0.00 0.00 0.00 82 1021.8
20200713055005 57 174 0.0 0.0 0.00 0.00 0.00 81 1021.8
20200713054503 57 240 0.0 0.0 0.00 0.00 0.00 81 1021.8
20200713054001 57 146 0.0 0.0 0.00 0.00 0.00 81 1021.8
20200713053456 57 180 0.0 0.0 0.00 0.00 0.00 81 1021.8
20200713052955 57 153 0.0 0.0 0.00 0.00 0.00 80 1021.9
20200713052453 57 144 0.0 0.0 0.00 0.00 0.00 80 1021.9
20200713051953 57 101 0.0 0.0 0.00 0.00 0.00 81 1021.9
20200713051452 57 193 0.0 0.0 0.00 0.00 0.00 81 1021.9
20200713050953 57 145 0.0 0.0 0.00 0.00 0.00 81 1021.9
20200713050453 56 193 0.0 0.0 0.00 0.00 0.00 81 1021.9
20200713045951 56 160 0.0 0.0 0.00 0.00 0.00 81 1021.9
20200713045451 56 148 0.0 0.0 0.00 0.00 0.00 81 1021.9
20200713044951 56 221 0.0 0.0 0.00 0.00 0.00 81 1022.0
20200713044432 56 169 0.0 0.0 0.00 0.00 0.00 81 1022.0
20200713043930 56 134 0.0 0.0 0.00 0.00 0.00 81 1022.0
20200713043428 56 149 0.0 0.0 0.00 0.00 0.00 81 1022.0
20200713042927 56 150 0.0 0.0 0.00 0.00 0.00 81 1022.0
20200713042431 56 159 0.0 0.0 0.00 0.00 0.00 81 1022.1
20200713041927 56 139 0.0 0.0 0.00 0.00 0.00 81 1022.1
20200713041426 56 190 0.0 0.0 0.00 0.00 0.00 81 1022.1
20200713040925 56 139 0.0 0.0 0.00 0.00 0.00 81 1022.0
20200713040409 56 134 0.0 0.0 0.00 0.00 0.00 81 1022.1
20200713035859 56 141 0.0 0.0 0.00 0.00 0.00 80 1022.0
20200713035353 56 211 0.0 0.0 0.00 0.00 0.00 80 1022.1
20200713034855 56 179 0.0 0.0 0.00 0.00 0.00 80 1022.2
20200713034329 56 126 0.0 0.0 0.00 0.00 0.00 80 1022.2
20200713033829 56 136 0.0 0.0 0.00 0.00 0.00 80 1022.2
20200713033327 56 163 0.0 0.0 0.00 0.00 0.00 80 1022.2
20200713032828 56 126 0.0 0.0 0.00 0.00 0.00 79 1022.3
20200713032307 56 177 0.0 0.0 0.00 0.00 0.00 79 1022.3
20200713031804 56 158 0.0 4.0 0.00 0.00 0.00 79 1022.4
20200713031300 57 156 0.0 4.0 0.00 0.00 0.00 79 1022.4
20200713030754 57 169 0.0 3.0 0.00 0.00 0.00 78 1022.5
20200713030258 57 158 0.0 1.0 0.00 0.00 0.00 78 1022.5
20200713025755 57 134 0.0 1.0 0.00 0.00 0.00 78 1022.5
20200713025256 57 141 0.0 0.0 0.00 0.00 0.00 78 1022.6
20200713024755 57 169 0.0 0.0 0.00 0.00 0.00 78 1022.5
20200713024253 57 142 0.0 0.0 0.00 0.00 0.00 78 1022.6
20200713023749 57 139 0.0 0.0 0.00 0.00 0.00 78 1022.7
20200713023250 57 177 0.0 0.0 0.00 0.00 0.00 78 1022.6
20200713022753 57 133 0.0 0.0 0.00 0.00 0.00 77 1022.7
20200713022250 57 129 0.0 0.0 0.00 0.00 0.00 77 1022.8
20200713021749 57 184 0.0 1.0 0.00 0.00 0.00 77 1022.8
20200713021249 57 137 0.0 1.0 0.00 0.00 0.00 77 1022.9
20200713020745 57 191 0.0 1.0 0.00 0.00 0.00 77 1023.0
20200713020246 57 160 0.0 0.0 0.00 0.00 0.00 77 1023.1
20200713015745 57 136 0.0 0.0 0.00 0.00 0.00 77 1023.1
20200713015245 57 163 0.0 0.0 0.00 0.00 0.00 77 1023.2
20200713014745 57 155 0.0 0.0 0.00 0.00 0.00 77 1023.2
20200713014245 57 146 0.0 0.0 0.00 0.00 0.00 76 1023.2
20200713013746 57 216 0.0 0.0 0.00 0.00 0.00 76 1023.4
20200713013246 57 150 0.0 0.0 0.00 0.00 0.00 76 1023.5
20200713012746 57 185 0.0 0.0 0.00 0.00 0.00 76 1023.5
20200713012227 57 167 0.0 0.0 0.00 0.00 0.00 76 1023.6
20200713011708 57 143 0.0 0.0 0.00 0.00 0.00 76 1023.6
20200713011203 57 172 0.0 0.0 0.00 0.00 0.00 75 1023.6
20200713010705 57 148 0.0 0.0 0.00 0.00 0.00 75 1023.7
20200713010202 57 145 0.0 0.0 0.00 0.00 0.00 75 1023.7
20200713005701 57 172 0.0 0.0 0.00 0.00 0.00 75 1023.7
20200713005204 57 143 0.0 0.0 0.00 0.00 0.00 74 1023.6
20200713004703 57 160 0.0 0.0 0.00 0.00 0.00 74 1023.7
20200713004157 57 214 0.0 1.0 0.00 0.00 0.00 73 1023.7
20200713003649 57 193 0.0 1.0 0.00 0.00 0.00 72 1023.8
20200713003137 57 146 0.0 0.0 0.00 0.00 0.00 72 1023.8
20200713002632 57 180 0.0 0.0 0.00 0.00 0.00 72 1023.8
20200713002133 57 161 0.0 0.0 0.00 0.00 0.00 72 1023.9
20200713001627 58 186 0.0 0.0 0.00 0.00 0.00 71 1023.9
20200713001126 58 158 0.0 0.0 0.00 0.00 0.00 70 1023.8
20200713000625 58 185 0.0 0.0 0.00 0.00 0.00 70 1023.9
20200713000125 58 146 0.0 0.0 0.00 0.00 0.00 70 1024.0
20200712235621 58 149 0.0 0.0 0.00 0.00 0.00 69 1024.0
20200712235103 58 158 0.0 0.0 0.00 0.00 0.00 69 1024.0
20200712234602 58 158 0.0 0.0 0.00 0.00 0.00 69 1024.0
20200712234037 58 195 0.0 0.0 0.00 0.00 0.00 70 1024.0
20200712233537 58 195 0.0 0.0 0.00 0.00 0.00 70 1024.1
20200712233031 58 153 0.0 2.0 0.00 0.00 0.00 69 1024.1
20200712232531 58 153 0.0 2.0 0.00 0.00 0.00 69 1024.1
20200712232031 58 238 0.0 0.0 0.00 0.00 0.00 71 1024.1
20200712231534 58 238 0.0 0.0 0.00 0.00 0.00 71 1024.2
20200712231029 58 237 0.0 0.0 0.00 0.00 0.00 70 1024.2
20200712230516 58 238 0.0 0.0 0.00 0.00 0.00 69 1024.2
20200712230012 59 209 0.0 0.0 0.00 0.00 0.00 69 1024.3
20200712225509 59 201 0.0 1.0 0.00 0.00 0.00 68 1024.3
20200712225000 59 248 0.0 1.0 0.00 0.00 0.00 67 1024.4
20200712224500 59 260 0.0 0.0 0.00 0.00 0.00 67 1024.3
20200712224000 59 271 0.0 0.0 0.00 0.00 0.00 67 1024.4
20200712223436 59 276 0.0 0.0 0.00 0.00 0.00 67 1024.5
20200712222930 59 289 0.0 1.0 0.00 0.00 0.00 67 1024.5
20200712222422 58 284 0.0 1.0 0.00 0.00 0.00 68 1024.5
20200712221924 58 242 0.0 0.0 0.00 0.00 0.00 69 1024.5
20200712221401 58 251 0.0 0.0 0.00 0.00 0.00 70 1024.6
20200712220900 58 280 0.0 0.0 0.00 0.00 0.00 70 1024.6
20200712220401 58 229 0.0 0.0 0.00 0.00 0.00 72 1024.7
20200712215902 58 235 0.0 0.0 0.00 0.00 0.00 74 1024.7
20200712215404 58 235 0.0 0.0 0.00 0.00 0.00 73 1024.7
20200712214901 59 235 0.0 0.0 0.00 0.00 0.00 73 1024.8
20200712214359 59 235 0.0 0.0 0.00 0.00 0.00 72 1024.8
20200712213837 59 235 0.0 0.0 0.00 0.00 0.00 72 1024.9
20200712213323 59 236 0.0 0.0 0.00 0.00 0.00 73 1024.9
20200712212821 59 235 0.0 0.0 0.00 0.00 0.00 72 1024.9
20200712212321 60 235 0.0 0.0 0.00 0.00 0.00 71 1024.9
20200712211803 60 235 0.0 0.0 0.00 0.00 0.00 70 1024.8
20200712211249 60 235 0.0 0.0 0.00 0.00 0.00 70 1024.8
20200712210748 60 235 0.0 0.0 0.00 0.00 0.00 70 1024.8
20200712210213 60 235 0.0 0.0 0.00 0.00 0.00 70 1024.8
20200712205710 60 235 0.0 0.0 0.00 0.00 0.00 71 1024.8
20200712205207 60 293 0.0 0.0 0.00 0.00 0.00 72 1024.9
20200712204707 61 294 0.0 0.0 0.00 0.00 0.00 71 1024.8
20200712204207 61 294 0.0 0.0 0.00 0.00 0.00 70 1024.8
20200712203705 61 294 0.0 0.0 0.00 0.00 0.00 71 1024.8
20200712203205 61 293 0.0 0.0 0.00 0.00 0.00 70 1024.8
20200712202705 61 293 0.0 0.0 0.00 0.00 0.00 69 1024.8
20200712202206 62 294 0.0 0.0 0.00 0.00 0.00 69 1024.8
20200712201711 62 294 0.0 0.0 0.00 0.00 0.00 69 1024.9
20200712201204 62 294 0.0 0.0 0.00 0.00 0.00 69 1024.9
20200712200703 62 293 0.0 0.0 0.00 0.00 0.00 68 1024.8
20200712200157 63 294 0.0 0.0 0.00 0.00 0.00 68 1024.8
20200712195651 63 294 0.0 0.0 0.00 0.00 0.00 68 1024.7
20200712195150 63 294 0.0 0.0 0.00 0.00 0.00 67 1024.7
20200712194633 63 294 0.0 0.0 0.00 0.00 0.00 64 1024.7
20200712194132 64 293 0.0 0.0 0.00 0.00 0.00 64 1024.8
20200712193630 64 293 0.0 0.0 0.00 0.00 0.00 63 1024.7
20200712193126 64 293 0.0 0.0 0.00 0.00 0.00 62 1024.7
20200712192625 64 293 0.0 0.0 0.00 0.00 0.00 62 1024.6
20200712192125 64 293 0.0 0.0 0.00 0.00 0.00 63 1024.7
20200712191624 64 292 0.0 0.0 0.00 0.00 0.00 62 1024.8
20200712191123 64 295 0.0 0.0 0.00 0.00 0.00 60 1024.7
20200712190613 65 297 0.0 0.0 0.00 0.00 0.00 61 1024.7
20200712190114 65 298 0.0 0.0 0.00 0.00 0.00 60 1024.7
20200712185557 65 293 0.0 0.0 0.00 0.00 0.00 61 1024.7
20200712185058 65 296 0.0 0.0 0.00 0.00 0.00 61 1024.7
20200712184559 65 296 0.0 0.0 0.00 0.00 0.00 65 1024.7
20200712184100 65 298 0.0 0.0 0.00 0.00 0.00 63 1024.7
20200712183543 65 302 0.0 0.0 0.00 0.00 0.00 64 1024.7
20200712183017 65 303 0.0 0.0 0.00 0.00 0.00 62 1024.7
20200712182518 65 300 0.0 0.0 0.00 0.00 0.00 62 1024.7
20200712182015 65 292 0.0 0.0 0.00 0.00 0.00 63 1024.8
20200712181507 65 310 0.0 0.0 0.00 0.00 0.00 63 1024.8
20200712181005 65 294 0.0 0.0 0.00 0.00 0.00 63 1024.8
20200712180504 65 307 0.0 0.0 0.00 0.00 0.00 63 1024.8
20200712180004 65 296 0.0 0.0 0.00 0.00 0.00 62 1024.9
20200712175505 65 297 0.0 0.0 0.00 0.00 0.00 62 1024.8
20200712175002 66 307 1.0 5.0 0.00 0.00 0.00 62 1024.9
20200712174502 66 314 1.0 5.0 0.00 0.00 0.00 63 1024.9
20200712174003 66 295 2.0 5.0 0.00 0.00 0.00 62 1024.9
20200712173459 67 311 1.0 5.0 0.00 0.00 0.00 62 1024.9
20200712172957 67 318 0.0 0.0 0.00 0.00 0.00 62 1024.9
20200712172501 68 303 0.0 0.0 0.00 0.00 0.00 61 1024.9
20200712171957 68 302 0.0 0.0 0.00 0.00 0.00 56 1024.9
20200712171452 69 300 0.0 0.0 0.00 0.00 0.00 57 1024.9
20200712170947 69 295 0.0 0.0 0.00 0.00 0.00 57 1025.0
20200712170435 69 318 0.0 0.0 0.00 0.00 0.00 57 1025.0
20200712165935 69 285 0.0 0.0 0.00 0.00 0.00 57 1025.0